Location: Unspecified
(0.0000°N, 0.0000°E)
Time: 21:37:07
(UTC+00:00)

Vanguard 1 - Pass Details

Date: 17 June 2025
Orbit: 649 x 3822 km, 34.2° (Epoch: 12 July)

Event Time Altitude Azimuth Distance (km) Brightness Sun altitude
Rises 19:24:44 0° 294° (WNW) 7,546 16.3 -19.1°
Reaches altitude 10° 19:30:45 10° 289° (WNW) 6,154 15.3 -20.5°
Maximum altitude 19:46:55 44° 223° (SW) 2,770 12.3 -24.1°
Enters shadow 19:53:18 23° 165° (SSE) 3,014 12.1 -25.6°
